THY49F LTFD-LTFM

Flight info

Callsign THY49F
Flight time 0h 39m
Altitude 19000
Route DUGLA1M/23 DUGLA Z713 INBET
Aircraft A319/M-SDE3FGHIRWY/LB1

Departure

Time 2026-04-26 12:43
Airport Balıkesir Koca Seyit Airport (LTFD)

Arrival

Time 2026-04-26 13:22
Airport İstanbul Airport (LTFM)
Time Latitude Longitude Altitude Speed Heading
2026-04-26 12:25 39.54923 27.01162 51 ft 0 kts 143°
2026-04-26 12:33 39.54924 27.01161 51 ft 2 kts 143°
2026-04-26 12:33 39.54945 27.01141 49 ft 4 kts 139°
2026-04-26 12:33 39.54962 27.01116 47 ft 4 kts 100°
2026-04-26 12:34 39.54962 27.01101 51 ft 0 kts 52°
2026-04-26 12:36 39.54964 27.01104 46 ft 2 kts 46°
2026-04-26 12:37 39.54982 27.01109 51 ft 3 kts 356°
2026-04-26 12:37 39.55009 27.01091 51 ft 5 kts 325°
2026-04-26 12:37 39.55049 27.01052 49 ft 10 kts 323°
2026-04-26 12:37 39.55081 27.01022 48 ft 1 kts 324°
2026-04-26 12:38 39.55094 27.01010 48 ft 4 kts 324°
2026-04-26 12:38 39.55130 27.00976 49 ft 8 kts 324°
2026-04-26 12:38 39.55183 27.00946 49 ft 9 kts
2026-04-26 12:38 39.55228 27.01000 50 ft 9 kts 54°
2026-04-26 12:39 39.55271 27.01077 53 ft 12 kts 54°
2026-04-26 12:39 39.55334 27.01187 53 ft 18 kts 54°
2026-04-26 12:39 39.55411 27.01323 53 ft 19 kts 54°
2026-04-26 12:39 39.55496 27.01474 53 ft 22 kts 54°
2026-04-26 12:40 39.55592 27.01643 52 ft 24 kts 54°
2026-04-26 12:40 39.55691 27.01816 51 ft 23 kts 53°
2026-04-26 12:40 39.55770 27.01956 54 ft 17 kts 54°
2026-04-26 12:40 39.55843 27.02085 52 ft 18 kts 54°
2026-04-26 12:41 39.55914 27.02211 59 ft 17 kts 54°
2026-04-26 12:41 39.55973 27.02301 55 ft 12 kts 36°
2026-04-26 12:41 39.56041 27.02337 58 ft 9 kts 28°
2026-04-26 12:41 39.56045 27.02399 54 ft 7 kts 144°
2026-04-26 12:42 39.56004 27.02366 55 ft 9 kts 236°
2026-04-26 12:42 39.55974 27.02315 57 ft 12 kts 232°
2026-04-26 12:42 39.55797 27.02004 54 ft 74 kts 234°
2026-04-26 12:42 39.55381 27.01269 55 ft 126 kts 233°
2026-04-26 12:43 39.54781 27.00209 228 ft 154 kts 234°
2026-04-26 12:43 39.54148 26.99090 828 ft 154 kts 233°
2026-04-26 12:43 39.53518 26.97976 1477 ft 151 kts 233°
2026-04-26 12:43 39.52891 26.96871 2003 ft 160 kts 235°
2026-04-26 12:44 39.52187 26.95623 2372 ft 183 kts 235°
2026-04-26 12:44 39.51385 26.94203 2755 ft 208 kts 235°
2026-04-26 12:44 39.50479 26.92598 3266 ft 233 kts 234°
2026-04-26 12:44 39.49484 26.90846 3755 ft 256 kts 234°
2026-04-26 12:45 39.48400 26.88941 4541 ft 267 kts 234°
2026-04-26 12:45 39.47289 26.86992 5490 ft 271 kts 234°
2026-04-26 12:45 39.46167 26.85022 6609 ft 272 kts 234°
2026-04-26 12:45 39.45023 26.83066 7580 ft 274 kts 230°
2026-04-26 12:46 39.43425 26.81703 8440 ft 283 kts 198°
2026-04-26 12:46 39.41448 26.81690 9367 ft 293 kts 166°
2026-04-26 12:46 39.39616 26.82896 10254 ft 300 kts 146°
2026-04-26 12:46 39.37989 26.84622 11065 ft 305 kts 139°
2026-04-26 12:47 39.36426 26.86504 11861 ft 309 kts 136°
2026-04-26 12:47 39.35193 26.88779 12621 ft 315 kts 109°
2026-04-26 12:47 39.34972 26.91564 13386 ft 315 kts 78°
2026-04-26 12:47 39.35774 26.94132 14151 ft 313 kts 55°
2026-04-26 12:48 39.37102 26.96356 14916 ft 313 kts 46°
2026-04-26 12:48 39.38593 26.98418 15671 ft 315 kts 44°
2026-04-26 12:48 39.40099 27.00490 16402 ft 318 kts 45°
2026-04-26 12:48 39.41562 27.02646 17126 ft 321 kts 48°
2026-04-26 12:49 39.42976 27.04895 17851 ft 324 kts 50°
2026-04-26 12:49 39.44350 27.07220 18531 ft 327 kts 51°
2026-04-26 12:49 39.45563 27.09728 18883 ft 331 kts 60°
2026-04-26 12:49 39.46578 27.12411 18977 ft 332 kts 63°
2026-04-26 12:50 39.47509 27.15141 18996 ft 332 kts 65°
2026-04-26 12:50 39.48411 27.17890 19003 ft 332 kts 65°
2026-04-26 12:50 39.49440 27.20544 19006 ft 329 kts 50°
2026-04-26 12:50 39.51180 27.22378 19006 ft 323 kts 22°
2026-04-26 12:51 39.53328 27.23029 18993 ft 322 kts
2026-04-26 12:51 39.55562 27.22955 18996 ft 322 kts 353°
2026-04-26 12:51 39.57780 27.22578 19000 ft 322 kts 351°
2026-04-26 12:51 39.60001 27.22149 18995 ft 322 kts 351°
2026-04-26 12:52 39.62225 27.21781 18999 ft 322 kts 353°
2026-04-26 12:52 39.64456 27.21498 18999 ft 322 kts 354°
2026-04-26 12:52 39.66697 27.21291 18993 ft 326 kts 356°
2026-04-26 12:52 39.69031 27.21124 19003 ft 347 kts 356°
2026-04-26 12:53 39.71517 27.20966 18996 ft 368 kts 356°
2026-04-26 12:53 39.74146 27.20804 18997 ft 387 kts 356°
2026-04-26 12:53 39.76872 27.20635 18995 ft 396 kts 356°
2026-04-26 12:53 39.79631 27.20461 18998 ft 398 kts 356°
2026-04-26 12:54 39.82400 27.20281 18997 ft 397 kts 356°
2026-04-26 12:54 39.85110 27.20102 18997 ft 394 kts 356°
2026-04-26 12:54 39.87843 27.19919 18987 ft 391 kts 356°
2026-04-26 12:54 39.90546 27.19733 18998 ft 388 kts 356°
2026-04-26 12:55 39.93235 27.19546 18996 ft 387 kts 356°
2026-04-26 12:55 39.95927 27.19372 18994 ft 387 kts 357°
2026-04-26 12:55 39.98615 27.19569 18997 ft 389 kts
2026-04-26 12:55 40.01235 27.20382 18997 ft 390 kts 15°
2026-04-26 12:56 40.03842 27.21416 18997 ft 390 kts 15°
2026-04-26 12:56 40.06438 27.22467 18995 ft 390 kts 16°
2026-04-26 12:56 40.09029 27.23530 18995 ft 391 kts 16°
2026-04-26 12:56 40.11617 27.24599 18986 ft 391 kts 16°
2026-04-26 12:57 40.14213 27.25671 18991 ft 388 kts 16°
2026-04-26 12:57 40.16737 27.26713 18990 ft 372 kts 16°
2026-04-26 12:57 40.19214 27.27477 18989 ft 364 kts
2026-04-26 12:58 40.24134 27.28533 18987 ft 365 kts 22°
2026-04-26 12:58 40.26319 27.30237 18992 ft 367 kts 32°
2026-04-26 12:58 40.28435 27.32100 18995 ft 367 kts 32°
2026-04-26 12:58 40.30552 27.33976 18996 ft 367 kts 32°
2026-04-26 12:59 40.32665 27.35855 18993 ft 367 kts 32°
2026-04-26 12:59 40.34781 27.37737 18991 ft 368 kts 32°
2026-04-26 12:59 40.36897 27.39622 19001 ft 368 kts 32°
2026-04-26 12:59 40.39010 27.41505 18996 ft 368 kts 32°
2026-04-26 13:00 40.41133 27.43393 19000 ft 368 kts 32°
2026-04-26 13:00 40.43252 27.45275 18991 ft 368 kts 32°
2026-04-26 13:00 40.45372 27.47159 18996 ft 368 kts 32°
2026-04-26 13:00 40.47491 27.49047 18994 ft 368 kts 32°
2026-04-26 13:01 40.49616 27.50940 18986 ft 369 kts 32°
2026-04-26 13:01 40.51740 27.52829 18995 ft 369 kts 32°
2026-04-26 13:01 40.53863 27.54717 18997 ft 368 kts 32°
2026-04-26 13:01 40.55957 27.56587 18987 ft 368 kts 32°
2026-04-26 13:02 40.58077 27.58485 19001 ft 369 kts 32°
2026-04-26 13:02 40.60201 27.60388 18996 ft 369 kts 32°
2026-04-26 13:02 40.62321 27.62290 18999 ft 369 kts 32°
2026-04-26 13:02 40.64441 27.64194 19002 ft 369 kts 32°
2026-04-26 13:03 40.66561 27.66101 18995 ft 369 kts 32°
2026-04-26 13:03 40.68681 27.68005 18991 ft 369 kts 32°
2026-04-26 13:03 40.70804 27.69911 18993 ft 369 kts 32°
2026-04-26 13:03 40.72926 27.71816 18992 ft 369 kts 32°
2026-04-26 13:04 40.75047 27.73719 19001 ft 369 kts 32°
2026-04-26 13:04 40.77167 27.75623 18995 ft 369 kts 32°
2026-04-26 13:04 40.79263 27.77507 19000 ft 369 kts 32°
2026-04-26 13:04 40.81385 27.79418 18994 ft 369 kts 32°
2026-04-26 13:05 40.83506 27.81332 18995 ft 369 kts 32°
2026-04-26 13:05 40.85627 27.83246 18991 ft 369 kts 32°
2026-04-26 13:05 40.87746 27.85161 18991 ft 369 kts 32°
2026-04-26 13:05 40.89864 27.87080 18990 ft 369 kts 32°
2026-04-26 13:06 40.91985 27.89005 18992 ft 369 kts 32°
2026-04-26 13:06 40.94108 27.90928 18983 ft 373 kts 32°
2026-04-26 13:06 40.96261 27.92877 18981 ft 376 kts 32°
2026-04-26 13:06 40.98416 27.94830 18961 ft 376 kts 32°
2026-04-26 13:07 41.00564 27.96781 18541 ft 373 kts 32°
2026-04-26 13:07 41.02684 27.98715 17969 ft 371 kts 32°
2026-04-26 13:07 41.04827 28.00667 16971 ft 376 kts 32°
2026-04-26 13:07 41.06993 28.02639 15956 ft 380 kts 32°
2026-04-26 13:08 41.09163 28.04615 15416 ft 374 kts 32°
2026-04-26 13:08 41.11248 28.06520 15035 ft 365 kts 32°
2026-04-26 13:08 41.13320 28.08415 14859 ft 347 kts 32°
2026-04-26 13:08 41.15229 28.10163 14675 ft 328 kts 32°
2026-04-26 13:09 41.17062 28.11842 14445 ft 315 kts 32°
2026-04-26 13:09 41.18878 28.13498 13762 ft 319 kts 32°
2026-04-26 13:09 41.20706 28.15163 13255 ft 316 kts 32°
2026-04-26 13:09 41.22503 28.16807 12845 ft 311 kts 32°
2026-04-26 13:10 41.24273 28.18432 12434 ft 308 kts 32°
2026-04-26 13:10 41.26032 28.20048 12035 ft 307 kts 32°
2026-04-26 13:10 41.27780 28.21656 11663 ft 304 kts 32°
2026-04-26 13:10 41.29502 28.23241 11314 ft 298 kts 32°
2026-04-26 13:11 41.31192 28.24797 10962 ft 292 kts 32°
2026-04-26 13:11 41.32843 28.26316 10619 ft 286 kts 32°
2026-04-26 13:11 41.34466 28.27807 10286 ft 280 kts 31°
2026-04-26 13:11 41.36026 28.29242 9962 ft 274 kts 31°
2026-04-26 13:12 41.37582 28.30674 9597 ft 270 kts 32°
2026-04-26 13:12 41.39122 28.32094 9230 ft 267 kts 31°
2026-04-26 13:12 41.40632 28.33488 8873 ft 262 kts 32°
2026-04-26 13:12 41.42122 28.34860 8512 ft 258 kts 31°
2026-04-26 13:13 41.43586 28.36212 8146 ft 254 kts 31°
2026-04-26 13:13 41.44857 28.37820 7798 ft 254 kts 55°
2026-04-26 13:13 41.45482 28.40024 7458 ft 257 kts 74°
2026-04-26 13:13 41.45871 28.42355 7114 ft 259 kts 76°
2026-04-26 13:14 41.46235 28.44713 6772 ft 260 kts 76°
2026-04-26 13:14 41.46596 28.47084 6437 ft 262 kts 76°
2026-04-26 13:14 41.46950 28.49434 6119 ft 260 kts 76°
2026-04-26 13:14 41.47304 28.51764 5821 ft 253 kts 76°
2026-04-26 13:15 41.47652 28.54031 5512 ft 246 kts 76°
2026-04-26 13:15 41.47998 28.56247 5209 ft 241 kts 76°
2026-04-26 13:15 41.48343 28.58411 4912 ft 235 kts 76°
2026-04-26 13:15 41.48574 28.59839 4715 ft 233 kts 76°
2026-04-26 13:16 41.49031 28.62618 4302 ft 230 kts 76°
2026-04-26 13:16 41.49385 28.64705 3942 ft 232 kts 76°
2026-04-26 13:16 41.49745 28.66779 3687 ft 227 kts 76°
2026-04-26 13:16 41.50103 28.68811 3436 ft 223 kts 76°
2026-04-26 13:17 41.50249 28.72767 3013 ft 212 kts 116°
2026-04-26 13:17 41.49410 28.74301 2981 ft 206 kts 144°
2026-04-26 13:18 41.46789 28.75285 2991 ft 198 kts 183°
2026-04-26 13:18 41.45411 28.75307 2982 ft 198 kts 183°
2026-04-26 13:18 41.42650 28.75357 2833 ft 198 kts 182°
2026-04-26 13:19 41.41279 28.75384 2628 ft 195 kts 182°
2026-04-26 13:19 41.39934 28.75410 2357 ft 189 kts 182°
2026-04-26 13:19 41.38679 28.75436 2117 ft 170 kts 182°
2026-04-26 13:19 41.37582 28.75458 1905 ft 148 kts 182°
2026-04-26 13:20 41.36598 28.75476 1714 ft 137 kts 182°
2026-04-26 13:20 41.35660 28.75493 1541 ft 134 kts 183°
2026-04-26 13:20 41.34724 28.75510 1359 ft 133 kts 182°
2026-04-26 13:20 41.33800 28.75527 1191 ft 132 kts 182°
2026-04-26 13:21 41.32900 28.75544 1026 ft 130 kts 182°
2026-04-26 13:21 41.32293 28.75556 924 ft 129 kts 181°
2026-04-26 13:21 41.31110 28.75578 694 ft 128 kts 182°
2026-04-26 13:21 41.30225 28.75603 501 ft 125 kts 181°
2026-04-26 13:22 41.29346 28.75621 333 ft 127 kts 182°
2026-04-26 13:22 41.28487 28.75631 251 ft 113 kts 180°
2026-04-26 13:22 41.27968 28.75643 267 ft 49 kts 179°
2026-04-26 13:22 41.27630 28.75648 286 ft 42 kts 180°
2026-04-26 13:23 41.27362 28.75650 296 ft 30 kts 180°
2026-04-26 13:23 41.27171 28.75622 297 ft 25 kts 199°
2026-04-26 13:23 41.27050 28.75541 303 ft 15 kts 210°
2026-04-26 13:23 41.26963 28.75477 305 ft 13 kts 209°
2026-04-26 13:24 41.26897 28.75427 305 ft 8 kts 208°
2026-04-26 13:24 41.26852 28.75396 306 ft 0 kts 207°
2026-04-26 13:24 41.26840 28.75388 307 ft 6 kts 205°
2026-04-26 13:24 41.26783 28.75372 308 ft 9 kts 180°
2026-04-26 13:25 41.26736 28.75376 308 ft 7 kts 176°
2026-04-26 13:25 41.26699 28.75376 310 ft 0 kts 179°
2026-04-26 13:25 41.26657 28.75370 310 ft 11 kts 198°
2026-04-26 13:25 41.26622 28.75295 309 ft 10 kts 266°
2026-04-26 13:26 41.26621 28.75210 310 ft 8 kts 269°
2026-04-26 13:26 41.26614 28.75154 313 ft 6 kts 246°
2026-04-26 13:26 41.26578 28.75117 313 ft 5 kts 202°
2026-04-26 13:26 41.26531 28.75099 313 ft 8 kts 195°
2026-04-26 13:27 41.26474 28.75077 313 ft 8 kts 197°
2026-04-26 13:27 41.26422 28.75056 313 ft 8 kts 199°
2026-04-26 13:27 41.26358 28.75027 313 ft 11 kts 197°
2026-04-26 13:27 41.26275 28.74995 313 ft 11 kts 197°
2026-04-26 13:28 41.26205 28.74977 313 ft 10 kts 179°
2026-04-26 13:28 41.26161 28.74993 313 ft 10 kts 160°
2026-04-26 13:28 41.26080 28.75017 313 ft 8 kts 191°
2026-04-26 13:28 41.26055 28.74986 313 ft 7 kts 248°
2026-04-26 13:29 41.26041 28.74925 313 ft 5 kts 253°
2026-04-26 13:29 41.26037 28.74909 312 ft 0 kts 252°